Regional Weather Roundup
Issued by NWS

Home | Current Version | Previous Version | Graphics & Text | Print | Product List | Glossary On
Versions: 1 2 3 4 5 6 7 8 9 10 11 12 13 14 15 16 17 18 19 20 21 22 23 24 25 26 27 28 29 30 31 32 33 34 35 36 37 38 39 40 41 42 43 44 45 46 47 48 49 50
000
ASUS43 KTOP 181608
RWRKS

WEATHER ROUNDUP FOR KANSAS
NATIONAL WEATHER SERVICE GOODLAND KS
1000 AM CST THU DEC 18 2014

NOTE:  "FAIR" INDICATES FEW OR NO CLOUDS BELOW 12,000 FEET WITH NO
SIGNIFICANT WEATHER AND/OR OBSTRUCTIONS TO VISIBILITY.

KSZ001>006-013>018-027>032-041>047-181700-
NORTHWEST KANSAS

CITY           SKY/WX    TMP DP  RH WIND       PRES   REMARKS
GOODLAND       FOG       23  23 100 SW6       30.10R VSB 1/2
HAYS           CLOUDY    27  18  69 CALM      30.18S
HILL CITY      CLOUDY    27  25  92 CALM      30.18R
RUSSELL        CLOUDY    26  25  96 NE3       30.18R FOG
$$

KSZ061>065-074>080-084>089-181700-
SOUTHWEST KANSAS

CITY           SKY/WX    TMP DP  RH WIND       PRES   REMARKS
DODGE CITY     CLOUDY    29  27  92 N5        30.16R FOG
ELKHART          N/A     31  23  72 NW7         N/A
GARDEN CITY    FOG       28  28 100 N5        30.15R VSB 1/4
LIBERAL        CLOUDY    34  28  80 N8        30.15R
PRATT          CLOUDY    30  30 100 CALM      30.19R FOG
$$

KSZ066>073-081>083-090>101-181700-
SOUTHEAST KANSAS

CITY           SKY/WX    TMP DP  RH WIND       PRES   REMARKS
CHANUTE        CLOUDY    32  32 100 E3        30.21R FOG
COFFEYVILLE    FOG       35  34  96 NE6       30.21S VSB 1/2
HUTCHINSON     CLOUDY    31  28  89 NE5       30.20R FOG
MEDICINE LODGE   N/A     32  32 100 N5        30.18R
NEWTON         CLOUDY    30  25  80 NE3       30.20R VSB 1
PARSONS        FOG       35  35 100 CALM      30.22S VSB 3/4
WICHITA INTL   FOG       32  30  92 N3        30.20R VSB 1/2
WICHITA JABRA  FOG       31  30  96 N3        30.20R VSB 1/2
WICHITA MCCONL FOG       32  32 100 NE5       30.20R VSB 3/4
WINFIELD       FOG       33  33 100 CALM      30.21R VSB 1/2
$$

KSZ007>012-019>026-033>040-048>060-102>105-181700-
NORTHEAST KANSAS

CITY           SKY/WX    TMP DP  RH WIND       PRES   REMARKS
CONCORDIA      CLOUDY    26  25  96 E5        30.22R FOG
EMPORIA        CLOUDY    29  28  96 NE3       30.21R FOG
LAWRENCE       CLOUDY    30  27  88 E7        30.24S FOG
MANHATTAN      CLOUDY    29  27  92 NE3       30.24R
MARYSVILLE     LGT SNOW  28  27  93 SE3       30.23S
OLATHE IND     LGT SNOW  31  28  89 E5        30.23R FOG
OLATHE EXE     CLOUDY    31  28  89 E7        30.22R FOG
SALINA         CLOUDY    29  26  89 NE5       30.23R
TOPEKA BILLARD CLOUDY    32  28  85 N5        30.25R
TOPEKA FORBES  CLOUDY    31  27  85 NE3       30.23R FOG
$$


USA.gov is the U.S. government's official web portal to all federal, state and local government web resources and services.